| time (UTC) | temp F | wind direction | speed knots | gust knots | rain 1hr in | rain 24hr in | rain mn in | humidity % | barometer mb |
| 20260505210012 | 63 | 124 | 0.9 | 4.3 | 0.00 | 0.00 | 0.00 | 76 | 1016.5 |
| 20260505204508 | 62 | 165 | 0.0 | 2.6 | 0.00 | 0.00 | 0.00 | 76 | 1016.6 |
| 20260505203007 | 61 | 84 | 1.7 | 3.5 | 0.00 | 0.00 | 0.00 | 77 | 1016.7 |
| 20260505201506 | 61 | 44 | 0.0 | 1.7 | 0.00 | 0.00 | 0.00 | 77 | 1016.7 |
| 20260505200005 | 61 | 114 | 0.9 | 5.2 | 0.00 | 0.00 | 0.00 | 78 | 1016.8 |
| 20260505194502 | 61 | 275 | 0.0 | 2.6 | 0.00 | 0.00 | 0.00 | 78 | 1016.8 |
| 20260505193101 | 60 | 77 | 0.0 | 3.5 | 0.00 | 0.00 | 0.00 | 79 | 1016.9 |
| 20260505191607 | 60 | 98 | 1.7 | 5.2 | 0.00 | 0.00 | 0.00 | 80 | 1017.0 |
| 20260505190103 | 59 | 157 | 0.9 | 5.2 | 0.00 | 0.00 | 0.00 | 80 | 1017.0 |
| 20260505184551 | 58 | 167 | 0.0 | 6.1 | 0.00 | 0.00 | 0.00 | 81 | 1016.9 |
| 20260505183112 | 58 | 100 | 0.9 | 3.5 | 0.00 | 0.00 | 0.00 | 81 | 1016.9 |
| 20260505181549 | 58 | 100 | 1.7 | 5.2 | 0.00 | 0.00 | 0.00 | 81 | 1016.7 |
| 20260505180047 | 58 | 111 | 0.9 | 3.5 | 0.00 | 0.00 | 0.00 | 80 | 1016.7 |
| 20260505174544 | 58 | 112 | 1.7 | 5.2 | 0.00 | 0.00 | 0.00 | 80 | 1016.7 |
| 20260505173049 | 58 | 194 | 0.9 | 2.6 | 0.00 | 0.00 | 0.00 | 81 | 1016.6 |
| 20260505171545 | 57 | 197 | 0.9 | 1.7 | 0.00 | 0.00 | 0.00 | 81 | 1016.5 |
| 20260505170034 | 57 | 162 | 0.0 | 1.7 | 0.00 | 0.00 | 0.00 | 82 | 1016.5 |
| 20260505164532 | 56 | 207 | 0.0 | 1.7 | 0.00 | 0.00 | 0.00 | 83 | 1016.6 |
| 20260505163030 | 56 | 212 | 0.0 | 2.6 | 0.00 | 0.00 | 0.00 | 82 | 1016.5 |
| 20260505161528 | 56 | 127 | 0.9 | 1.7 | 0.00 | 0.00 | 0.00 | 83 | 1016.4 |
| 20260505153020 | 55 | 309 | 0.0 | 2.6 | 0.00 | 0.00 | 0.00 | 84 | 1016.5 |
| 20260505151529 | 54 | 283 | 2.6 | 5.2 | 0.00 | 0.00 | 0.00 | 84 | 1016.4 |
| 20260505124555 | 53 | 290 | 0.9 | 5.2 | 0.00 | 0.00 | 0.00 | 88 | 1015.5 |
| 20260505123055 | 53 | 263 | 1.7 | 5.2 | 0.00 | 0.00 | 0.00 | 88 | 1015.3 |
| 20260505121554 | 53 | 257 | 0.0 | 0.0 | 0.00 | 0.00 | 0.00 | 88 | 1015.4 |
| 20260505120110 | 53 | 271 | 0.0 | 0.0 | 0.00 | 0.00 | 0.00 | 88 | 1015.3 |
| 20260505114552 | 53 | 265 | 0.0 | 0.0 | 0.00 | 0.00 | 0.00 | 88 | 1015.2 |
| 20260505113052 | 53 | 264 | 0.0 | 2.6 | 0.00 | 0.00 | 0.00 | 88 | 1015.3 |
| 20260505111551 | 53 | 274 | 0.9 | 2.6 | 0.00 | 0.00 | 0.00 | 89 | 1015.4 |
| 20260505101549 | 53 | 254 | 0.9 | 5.2 | 0.00 | 0.00 | 0.00 | 89 | 1015.0 |
| 20260505100045 | 53 | 231 | 0.0 | 4.3 | 0.00 | 0.00 | 0.00 | 88 | 1015.0 |
| 20260505094543 | 53 | 261 | 0.9 | 3.5 | 0.00 | 0.00 | 0.00 | 89 | 1014.9 |
| 20260505093044 | 53 | 269 | 1.7 | 6.1 | 0.00 | 0.00 | 0.00 | 89 | 1014.9 |
| 20260505091540 | 53 | 271 | 2.6 | 7.8 | 0.00 | 0.00 | 0.00 | 88 | 1014.8 |
| 20260505090045 | 53 | 258 | 3.5 | 7.0 | 0.00 | 0.00 | 0.00 | 89 | 1014.8 |
| 20260505084538 | 53 | 269 | 0.9 | 2.6 | 0.00 | 0.00 | 0.00 | 89 | 1014.7 |
| 20260505083035 | 53 | 240 | 0.9 | 2.6 | 0.00 | 0.00 | 0.00 | 89 | 1014.8 |
| 20260505081539 | 52 | 215 | 0.0 | 2.6 | 0.00 | 0.00 | 0.00 | 91 | 1014.8 |
| 20260505080038 | 52 | 286 | 0.0 | 1.7 | 0.00 | 0.00 | 0.00 | 92 | 1014.8 |
| 20260505074526 | 51 | 182 | 0.0 | 1.7 | 0.00 | 0.00 | 0.00 | 92 | 1014.7 |
| 20260505073042 | 51 | 254 | 0.0 | 0.0 | 0.00 | 0.00 | 0.00 | 93 | 1014.6 |
| 20260505071523 | 51 | 202 | 0.0 | 0.0 | 0.00 | 0.00 | 0.00 | 92 | 1014.5 |
| 20260505070023 | 51 | 224 | 0.0 | 1.7 | 0.00 | 0.00 | 0.00 | 91 | 1014.5 |
| 20260505064535 | 52 | 316 | 0.0 | 0.9 | 0.00 | 0.00 | 0.00 | 90 | 1014.5 |
| 20260505063019 | 52 | 5 | 0.0 | 0.0 | 0.00 | 0.00 | 0.00 | 90 | 1014.6 |
| 20260505061530 | 52 | 322 | 0.9 | 1.7 | 0.00 | 0.00 | 0.00 | 90 | 1014.4 |
| 20260505060018 | 53 | 348 | 0.0 | 2.6 | 0.00 | 0.00 | 0.00 | 89 | 1014.5 |
| 20260505054520 | 53 | 346 | 2.6 | 4.3 | 0.00 | 0.00 | 0.00 | 89 | 1014.4 |
| 20260505053016 | 53 | 322 | 2.6 | 6.1 | 0.00 | 0.00 | 0.00 | 88 | 1014.3 |
| 20260505051517 | 53 | 313 | 2.6 | 7.8 | 0.00 | 0.00 | 0.00 | 88 | 1014.2 |
| 20260505041515 | 54 | 319 | 2.6 | 8.7 | 0.00 | 0.00 | 0.00 | 86 | 1013.5 |
| 20260505040013 | 55 | 298 | 4.3 | 10.4 | 0.00 | 0.00 | 0.00 | 86 | 1013.2 |
| 20260505034512 | 55 | 309 | 3.5 | 11.3 | 0.00 | 0.00 | 0.00 | 85 | 1013.1 |
| 20260505033012 | 56 | 305 | 3.5 | 9.6 | 0.00 | 0.00 | 0.00 | 84 | 1012.7 |
| 20260505031530 | 56 | 293 | 4.3 | 12.2 | 0.00 | 0.00 | 0.00 | 83 | 1012.5 |
| 20260505030013 | 57 | 323 | 4.3 | 13.9 | 0.00 | 0.00 | 0.00 | 82 | 1012.3 |
| 20260505024520 | 59 | 316 | 2.6 | 11.3 | 0.00 | 0.00 | 0.00 | 80 | 1012.1 |
| 20260505023012 | 60 | 297 | 4.3 | 11.3 | 0.00 | 0.00 | 0.00 | 78 | 1012.0 |
| 20260505021513 | 61 | 299 | 8.7 | 14.8 | 0.00 | 0.00 | 0.00 | 77 | 1011.8 |
| 20260505020022 | 61 | 312 | 7.0 | 11.3 | 0.00 | 0.00 | 0.00 | 76 | 1011.8 |
| 20260505014508 | 62 | 323 | 6.1 | 14.8 | 0.00 | 0.00 | 0.00 | 76 | 1011.8 |
| 20260505013007 | 63 | 316 | 5.2 | 14.8 | 0.00 | 0.00 | 0.00 | 74 | 1011.8 |
| 20260505011508 | 64 | 349 | 4.3 | 14.8 | 0.00 | 0.00 | 0.00 | 73 | 1011.8 |
| 20260505010006 | 66 | 331 | 6.1 | 10.4 | 0.00 | 0.00 | 0.00 | 71 | 1011.9 |
| 20260505004513 | 67 | 339 | 3.5 | 8.7 | 0.00 | 0.00 | 0.00 | 71 | 1011.9 |
| 20260505003005 | 67 | 349 | 2.6 | 8.7 | 0.00 | 0.00 | 0.00 | 69 | 1011.9 |
| 20260505001504 | 68 | 350 | 4.3 | 9.6 | 0.00 | 0.00 | 0.00 | 70 | 1011.9 |
| 20260505000007 | 69 | 18 | 3.5 | 7.0 | 0.00 | 0.00 | 0.00 | 69 | 1011.9 |
| 20260504234504 | 69 | 338 | 3.5 | 7.8 | 0.00 | 0.00 | 0.00 | 68 | 1011.8 |
| 20260504233003 | 70 | 312 | 2.6 | 6.1 | 0.00 | 0.00 | 0.00 | 67 | 1011.8 |
| 20260504231502 | 70 | 320 | 2.6 | 7.8 | 0.00 | 0.00 | 0.00 | 67 | 1011.8 |
| 20260504230000 | 70 | 307 | 2.6 | 7.0 | 0.00 | 0.00 | 0.00 | 67 | 1012.0 |
| 20260504224501 | 71 | 315 | 2.6 | 7.0 | 0.00 | 0.00 | 0.00 | 65 | 1012.2 |
| 20260504223105 | 71 | 350 | 2.6 | 6.1 | 0.00 | 0.00 | 0.00 | 66 | 1012.4 |
| 20260504221605 | 70 | 308 | 0.0 | 6.1 | 0.00 | 0.00 | 0.00 | 70 | 1012.6 |
| 20260504220059 | 70 | 155 | 0.9 | 3.5 | 0.00 | 0.00 | 0.00 | 69 | 1012.7 |
| 20260504214557 | 69 | 120 | 0.9 | 4.3 | 0.00 | 0.00 | 0.00 | 69 | 1012.8 |
| 20260504213053 | 69 | 171 | 0.9 | 3.5 | 0.00 | 0.00 | 0.00 | 73 | 1012.9 |
| 20260504211549 | 68 | 160 | 1.7 | 7.0 | 0.00 | 0.00 | 0.00 | 71 | 1013.0 |